Location: Igloolik
(69.3800°N, 81.8000°W)
Time: 17:39:57
(UTC-05:00)

Amateur Radio Satellites - All Passes

Search period start: 30 August 2016 17:09
Search period end: 31 August 2016 17:09
Location: Igloolik, 69.3800°N, 81.8000°W

Satellite Date Start Highest point End Downlink Frequencies (MHz)
Time Altitude Azimuth
GONETS M04 30 Aug 17:11:42 17:19:44 36° 357° (N) 17:27:48
ITAMSAT 1 30 Aug 17:12:16 17:13:18 11° 295° (WNW) 17:14:20 435.822/435.867
CUBESAT XI-V 30 Aug 17:12:20 17:16:35 32° 92° (E) 17:20:50 437.345
BEESAT 2 30 Aug 17:13:33 17:16:01 16° 228° (SW) 17:18:31 435.950
O/OREOS (USA 219) 30 Aug 17:14:13 17:18:47 68° 347° (NNW) 17:23:24 437.305
STARS 30 Aug 17:18:34 17:22:56 52° 104° (ESE) 17:27:14 437.465
SWISSCUBE 30 Aug 17:19:58 17:24:32 45° 313° (NW) 17:29:04 437.505
MOZHAYETS 4 30 Aug 17:20:54 17:25:31 89° 115° (ESE) 17:30:08
HO-68 30 Aug 17:25:43 17:32:51 68° 47° (NE) 17:40:00 435.675
BEESAT 3 30 Aug 17:26:10 17:27:04 11° 237° (WSW) 17:27:56 437.485
HORYU 2 30 Aug 17:27:09 17:30:59 27° 269° (W) 17:34:48 437.375
BRITE-PL 30 Aug 17:27:22 17:32:33 52° 260° (W) 17:38:06 437.365/2234.400
BEESAT 30 Aug 17:36:46 17:41:14 41° 316° (NW) 17:45:42 436.000
LilacSat-2 30 Aug 17:40:56 17:44:41 52° 256° (WSW) 17:48:27 437.200
CUBEBUG 1 30 Aug 17:41:56 17:44:51 17° 357° (N) 17:47:46 437.445
AIST 1 30 Aug 17:42:07 17:46:19 39° 50° (NE) 17:50:30
SPROUT 30 Aug 17:44:33 17:47:19 17° 350° (N) 17:50:06 437.525
50 SAT 30 Aug 17:48:22 17:49:47 12° 357° (N) 17:51:13 437.505
VELOX 1 30 Aug 17:48:25 17:51:27 18° 357° (N) 17:54:28 145.980
Oscar 11 30 Aug 17:50:32 17:54:11 27° 37° (NE) 17:57:50 145.826/435.025
DELFI C3 30 Aug 17:51:26 17:54:20 20° 29° (NNE) 17:57:15 145.870
TISAT 1 30 Aug 17:51:45 17:54:52 20° 337° (NNW) 17:57:59 437.305
SEEDS 30 Aug 17:52:29 17:56:27 44° 52° (NE) 18:00:28 437.485
DX 1 30 Aug 17:54:37 17:57:35 18° 354° (N) 18:00:34 434.975-435.025
NOAA 18 30 Aug 17:57:21 18:02:44 51° 257° (WSW) 18:08:08 137.9125
Cosmos 2499 30 Aug 17:59:32 18:05:53 30° 5° (N) 18:12:03 435.465 / 435.565
PCSat 30 Aug 18:01:00 18:06:13 48° 212° (SSW) 18:11:26 145.827
FUNcube-1 30 Aug 18:02:25 18:06:07 28° 39° (NE) 18:09:45 145.935
STRAND 1 30 Aug 18:13:42 18:17:02 17° 77° (ENE) 18:20:21 437.568
AAUSAT CUBESAT 2 30 Aug 18:14:06 18:18:01 43° 51° (NE) 18:21:59 437.432
AIST 2 30 Aug 18:14:29 18:18:06 29° 212° (SSW) 18:21:44 435.215
DOVE 4 30 Aug 18:14:31 18:19:49 64° 255° (WSW) 18:25:06 437.250
UWE-3 30 Aug 18:18:13 18:22:20 39° 48° (NE) 18:26:22 435.000/436.395/437.385
AUBIESAT-1 30 Aug 18:19:05 18:22:58 29° 15° (NNE) 18:26:41 437.475
Cubesat XI-IV 30 Aug 18:19:26 18:24:28 40° 263° (W) 18:29:31 437.490
CANX-2 30 Aug 18:20:34 18:24:46 75° 63° (ENE) 18:29:01 2200.000
NOAA 15 30 Aug 18:21:00 18:25:49 35° 267° (W) 18:30:41 137.62
GOMX 1 30 Aug 18:25:05 18:30:13 42° 266° (W) 18:35:28 467.674
COMPASS 1 30 Aug 18:25:21 18:29:24 54° 56° (NE) 18:33:29 437.405
ZACube-1 30 Aug 18:25:26 18:29:23 35° 46° (NE) 18:33:15 437.345
CUTE 1.7 + AOD 2 30 Aug 18:25:59 18:30:12 75° 62° (ENE) 18:34:27 437.475
ITUPSAT 1 30 Aug 18:26:31 18:30:38 30° 328° (NNW) 18:34:46 437.325
CUBEBUG 2 30 Aug 18:27:18 18:31:42 51° 54° (NE) 18:35:58 437.445
M-CUBED/EXP-1 PRIME 30 Aug 18:27:26 18:31:31 31° 19° (NNE) 18:35:23 437.505
KKS-1 30 Aug 18:28:17 18:32:41 53° 307° (NW) 18:37:03 437.445
UKube-1 30 Aug 18:28:33 18:31:26 17° 0° (N) 18:34:18 .
CUTE-I 30 Aug 18:30:29 18:35:23 36° 266° (W) 18:40:19 437.470
CINEMA 3 30 Aug 18:31:16 18:36:15 89° 247° (WSW) 18:41:04 145.822/145.860
AISAT 30 Aug 18:37:07 18:40:13 19° 9° (N) 18:43:19 437.250
ESTCUBE 1 30 Aug 18:42:13 18:45:28 20° 16° (NNE) 18:48:45 437.505/2401.250
HUMSAT D 30 Aug 18:43:23 18:46:42 24° 35° (NE) 18:50:00 437.325/437.525
Cosmos 2491 30 Aug 18:49:31 18:58:19 88° 109° (ESE) 19:07:13 435.465 / 435.565
CUBESAT XI-V 30 Aug 18:49:46 18:54:30 87° 295° (WNW) 18:59:15 437.345
YUBILEINY 30 Aug 18:50:21 18:58:04 36° 285° (WNW) 19:05:45 435.215
AO-7 30 Aug 18:51:33 18:54:36 12° 307° (NW) 18:57:39 29.400- 29.500
O/OREOS (USA 219) 30 Aug 18:54:02 18:58:37 66° 11° (N) 19:03:14 437.305
Cosmos 2504 30 Aug 18:54:32 19:01:36 49° 271° (W) 19:08:24 435.465 / 435.565
STARS 30 Aug 18:55:04 18:59:24 54° 307° (NW) 19:03:43 437.465
SWISSCUBE 30 Aug 18:57:44 19:01:35 25° 337° (NNW) 19:05:25 437.505
MOZHAYETS 4 30 Aug 18:58:14 19:02:26 36° 317° (NW) 19:06:37
BRITE-PL 30 Aug 19:08:22 19:12:20 20° 285° (WNW) 19:16:26 437.365/2234.400
GONETS M04 30 Aug 19:10:42 19:19:05 43° 29° (NNE) 19:27:27
HO-68 30 Aug 19:13:42 19:20:51 62° 252° (WSW) 19:28:01 435.675
BEESAT 30 Aug 19:14:27 19:18:13 24° 340° (NNW) 19:21:59 436.000
CUBEBUG 1 30 Aug 19:16:41 19:19:58 21° 21° (NNE) 19:23:15 437.445
LilacSat-2 30 Aug 19:17:29 19:19:51 16° 279° (W) 19:22:13 437.200
SPROUT 30 Aug 19:19:14 19:22:04 17° 13° (NNE) 19:24:54 437.525
AIST 1 30 Aug 19:19:51 19:24:17 73° 254° (WSW) 19:28:42
50 SAT 30 Aug 19:20:11 19:22:12 14° 20° (NNE) 19:24:13 437.505
VELOX 1 30 Aug 19:23:24 19:26:45 21° 20° (NNE) 19:30:06 145.980
DELFI C3 30 Aug 19:24:44 19:28:29 42° 51° (NE) 19:32:16 145.870
Oscar 11 30 Aug 19:25:35 19:29:51 65° 60° (ENE) 19:34:09 145.826/435.025
TISAT 1 30 Aug 19:26:45 19:29:23 16° 360° (N) 19:32:00 437.305
SEEDS 30 Aug 19:28:00 19:32:09 61° 254° (WSW) 19:36:20 437.485
DX 1 30 Aug 19:29:24 19:32:38 20° 18° (NNE) 19:35:51 434.975-435.025
FUNcube-1 30 Aug 19:37:39 19:41:59 72° 62° (ENE) 19:46:13 145.935
NOAA 18 30 Aug 19:40:42 19:44:42 20° 281° (W) 19:48:41 137.9125
PCSat 30 Aug 19:44:26 19:48:44 24° 236° (SW) 19:53:01 145.827
AAUSAT CUBESAT 2 30 Aug 19:49:23 19:53:29 63° 254° (WSW) 19:57:38 437.432
AUBIESAT-1 30 Aug 19:52:28 19:56:51 47° 37° (NE) 20:01:02 437.475
STRAND 1 30 Aug 19:52:34 19:57:31 46° 101° (E) 20:02:26 437.568
AIST 2 30 Aug 19:53:34 19:55:32 13° 235° (SW) 19:57:32 435.215
DOVE 4 30 Aug 19:54:09 19:58:27 24° 278° (W) 20:02:45 437.250
UWE-3 30 Aug 19:54:13 19:58:41 75° 250° (WSW) 20:03:02 435.000/436.395/437.385
Cosmos 2499 30 Aug 19:54:16 20:01:05 41° 36° (NE) 20:07:43 435.465 / 435.565
CANX-2 30 Aug 19:57:10 20:01:02 34° 265° (W) 20:04:55 2200.000
M-CUBED/EXP-1 PRIME 30 Aug 20:00:58 20:05:31 54° 40° (NE) 20:09:53 437.505
COMPASS 1 30 Aug 20:01:05 20:05:06 48° 259° (W) 20:09:10 437.405
ZACube-1 30 Aug 20:01:06 20:05:28 85° 248° (WSW) 20:09:45 437.345
CUTE 1.7 + AOD 2 30 Aug 20:02:35 20:06:26 34° 265° (W) 20:10:20 437.475
Cubesat XI-IV 30 Aug 20:02:59 20:06:04 15° 287° (WNW) 20:09:08 437.490
UKube-1 30 Aug 20:03:02 20:06:22 22° 24° (NNE) 20:09:42 .
CUBEBUG 2 30 Aug 20:03:55 20:08:25 56° 256° (WSW) 20:12:47 437.445
ITUPSAT 1 30 Aug 20:03:56 20:07:28 21° 351° (N) 20:10:59 437.325
NOAA 15 30 Aug 20:04:51 20:07:16 13° 291° (WNW) 20:09:41 137.62
KKS-1 30 Aug 20:04:57 20:08:39 26° 330° (NNW) 20:12:20 437.445
GOMX 1 30 Aug 20:06:21 20:09:46 17° 290° (WNW) 20:13:13 467.674
CINEMA 3 30 Aug 20:09:30 20:13:56 32° 269° (W) 20:18:15 145.822/145.860
AISAT 30 Aug 20:11:53 20:15:39 27° 33° (NNE) 20:19:27 437.250
PRISM 30 Aug 20:13:03 20:16:02 18° 84° (E) 20:19:01 437.425
CUTE-I 30 Aug 20:14:29 20:17:05 14° 290° (WNW) 20:19:41 437.470
ESTCUBE 1 30 Aug 20:17:20 20:21:22 32° 39° (NE) 20:25:24 437.505/2401.250
HUMSAT D 30 Aug 20:17:45 20:21:48 57° 57° (ENE) 20:25:50 437.325/437.525
CUBESAT XI-V 30 Aug 20:27:19 20:31:36 36° 317° (NW) 20:35:54 437.345
STARS 30 Aug 20:31:31 20:35:10 26° 330° (NNW) 20:38:49 437.465
O/OREOS (USA 219) 30 Aug 20:33:38 20:38:14 78° 215° (SW) 20:42:51 437.305
SWISSCUBE 30 Aug 20:34:49 20:38:15 20° 0° (N) 20:41:42 437.505
MOZHAYETS 4 30 Aug 20:35:20 20:38:43 21° 340° (NNW) 20:42:07
YUBILEINY 30 Aug 20:47:07 20:52:20 18° 314° (NW) 20:57:33 435.215
Cosmos 2491 30 Aug 20:47:33 20:56:06 52° 318° (NW) 21:04:43 435.465 / 435.565
Cosmos 2504 30 Aug 20:48:09 20:53:20 21° 298° (WNW) 20:58:24 435.465 / 435.565
CUBEBUG 1 30 Aug 20:51:19 20:55:24 36° 44° (NE) 20:59:29 437.445
BEESAT 30 Aug 20:51:24 20:54:51 20° 3° (N) 20:58:19 436.000
50 SAT 30 Aug 20:51:49 20:54:54 27° 43° (NE) 20:58:01 437.505
SPROUT 30 Aug 20:53:21 20:57:00 27° 36° (NE) 21:00:38 437.525
AIST 1 30 Aug 20:57:51 21:01:20 23° 277° (W) 21:04:49
VELOX 1 30 Aug 20:58:15 21:02:22 37° 43° (NE) 21:06:31 145.980
DELFI C3 30 Aug 20:59:22 21:03:18 62° 254° (WSW) 21:07:16 145.870
TISAT 1 30 Aug 21:00:47 21:03:53 20° 23° (NNE) 21:07:00 437.305
Oscar 11 30 Aug 21:02:11 21:06:16 40° 262° (W) 21:10:23 145.826/435.025
DX 1 30 Aug 21:03:58 21:07:57 34° 41° (NE) 21:11:56 434.975-435.025
HO-68 30 Aug 21:04:00 21:10:02 28° 278° (W) 21:16:04 435.675
ANTELSAT 30 Aug 21:05:02 21:07:01 13° 74° (ENE) 21:08:59 437.575/2403.000
SEEDS 30 Aug 21:05:39 21:08:41 19° 277° (W) 21:11:46 437.485
GONETS M04 30 Aug 21:08:35 21:17:29 71° 58° (ENE) 21:26:22
FUNcube-1 30 Aug 21:14:34 21:18:35 36° 264° (W) 21:22:32 145.935
AUBIESAT-1 30 Aug 21:26:36 21:31:13 76° 238° (WSW) 21:35:38 437.475
AAUSAT CUBESAT 2 30 Aug 21:26:44 21:29:46 19° 276° (W) 21:32:50 437.432
STRAND 1 30 Aug 21:31:55 21:37:01 69° 303° (WNW) 21:42:06 437.568
UWE-3 30 Aug 21:32:11 21:35:50 24° 272° (W) 21:39:23 435.000/436.395/437.385
CUSAT 1 30 Aug 21:32:52 21:35:31 16° 72° (ENE) 21:38:37 437.405
TIGRISAT 30 Aug 21:34:30 21:37:27 18° 81° (E) 21:40:23 435.000
M-CUBED/EXP-1 PRIME 30 Aug 21:35:22 21:40:03 65° 242° (WSW) 21:44:33 437.505
CANX-2 30 Aug 21:36:57 21:38:12 11° 289° (WNW) 21:39:27 2200.000
UKube-1 30 Aug 21:37:34 21:41:40 41° 47° (NE) 21:45:46 .
ZACube-1 30 Aug 21:38:38 21:42:20 27° 270° (W) 21:46:00 437.345
COMPASS 1 30 Aug 21:39:10 21:41:40 15° 281° (WNW) 21:44:11 437.405
ITUPSAT 1 30 Aug 21:40:30 21:44:08 22° 15° (NNE) 21:47:46 437.325
KKS-1 30 Aug 21:41:04 21:44:09 19° 353° (N) 21:47:14 437.445
CUTE 1.7 + AOD 2 30 Aug 21:42:21 21:43:35 11° 289° (WNW) 21:44:51 437.475
CUBEBUG 2 30 Aug 21:42:44 21:45:57 19° 278° (W) 21:49:07 437.445
AISAT 30 Aug 21:47:10 21:51:35 59° 56° (NE) 21:56:02 437.250
PRISM 30 Aug 21:48:02 21:52:12 58° 106° (ESE) 21:56:21 437.425
Cosmos 2499 30 Aug 21:48:03 21:55:18 78° 64° (ENE) 22:02:23 435.465 / 435.565
CINEMA 3 30 Aug 21:50:55 21:52:35 12° 292° (WNW) 21:54:12 145.822/145.860
ESTCUBE 1 30 Aug 21:53:17 21:57:49 79° 62° (ENE) 22:02:23 437.505/2401.250
HUMSAT D 30 Aug 21:53:39 21:57:37 44° 260° (W) 22:01:34 437.325/437.525
UNISAT 6 30 Aug 22:04:06 22:07:46 25° 89° (E) 22:11:21 437.425
CUBESAT XI-V 30 Aug 22:04:36 22:08:05 21° 341° (NNW) 22:11:35 437.345
STARS 30 Aug 22:07:28 22:10:29 18° 353° (N) 22:13:29 437.465
SWISSCUBE 30 Aug 22:11:05 22:14:56 25° 24° (NNE) 22:18:48 437.505
MOZHAYETS 4 30 Aug 22:11:39 22:14:42 18° 3° (N) 22:17:45
O/OREOS (USA 219) 30 Aug 22:13:09 22:17:16 33° 239° (WSW) 22:21:23 437.305
50 SAT 30 Aug 22:24:33 22:28:10 81° 64° (ENE) 22:31:49 437.505
CUBEBUG 1 30 Aug 22:26:59 22:31:26 87° 245° (WSW) 22:35:57 437.445
BEESAT 30 Aug 22:27:36 22:31:33 26° 27° (NNE) 22:35:30 436.000
SPROUT 30 Aug 22:28:11 22:32:28 63° 58° (ENE) 22:36:45 437.525
DUCHIFAT 1 30 Aug 22:29:04 22:30:55 13° 75° (ENE) 22:32:46 145.980
VELOX 1 30 Aug 22:34:07 22:38:36 87° 242° (WSW) 22:43:09 145.980
TISAT 1 30 Aug 22:34:49 22:38:45 37° 46° (NE) 22:42:41 437.305
DELFI C3 30 Aug 22:36:06 22:38:56 19° 276° (W) 22:41:48 145.870
QB50P2 30 Aug 22:36:30 22:39:03 15° 79° (ENE) 22:41:33 145.880/145.840
POLYITAN 1 30 Aug 22:39:01 22:41:33 15° 79° (E) 22:44:03 437.675
DX 1 30 Aug 22:39:27 22:43:52 86° 60° (ENE) 22:48:18 434.975-435.025
ANTELSAT 30 Aug 22:40:54 22:45:00 39° 98° (E) 22:49:02 437.575/2403.000
Oscar 11 30 Aug 22:41:26 22:43:35 13° 285° (WNW) 22:45:46 145.826/435.025
SO-50 30 Aug 22:43:33 22:45:07 11° 119° (ESE) 22:46:40 436.795
NANOSAT C BR1 30 Aug 22:44:14 22:46:50 16° 79° (E) 22:49:26 145.865
Cosmos 2491 30 Aug 22:47:05 22:55:08 37° 348° (NNW) 23:03:12 435.465 / 435.565
FUNcube-1 30 Aug 22:54:24 22:56:04 12° 287° (WNW) 22:57:44 145.935
HO-68 30 Aug 22:58:24 23:00:38 11° 305° (NW) 23:02:50 435.675
RS-15 30 Aug 23:01:00 23:08:01 18° 89° (E) 23:15:09 29.354- 29.394
AUBIESAT-1 30 Aug 23:02:18 23:06:15 27° 259° (W) 23:10:05 437.475
DANDE 30 Aug 23:02:22 23:04:45 19° 84° (E) 23:07:34 436.750
JAS-2 30 Aug 23:04:26 23:09:38 25° 79° (E) 23:15:18 435.910
GONETS M04 30 Aug 23:05:45 23:14:26 62° 266° (W) 23:23:05
BUGSAT 1 30 Aug 23:09:31 23:11:37 13° 76° (ENE) 23:13:42 437.445
TIGRISAT 30 Aug 23:10:51 23:15:09 54° 104° (ESE) 23:19:21 435.000
STRAND 1 30 Aug 23:11:11 23:15:43 33° 327° (NNW) 23:20:15 437.568
M-CUBED/EXP-1 PRIME 30 Aug 23:11:32 23:15:17 23° 263° (W) 23:18:58 437.505
CUSAT 1 30 Aug 23:12:23 23:16:16 50° 100° (E) 23:21:22 437.405
UKube-1 30 Aug 23:13:15 23:17:36 73° 249° (WSW) 23:21:59 .
KKS-1 30 Aug 23:16:16 23:19:33 20° 17° (NNE) 23:22:51 437.445
ITUPSAT 1 30 Aug 23:16:44 23:21:03 35° 39° (NE) 23:25:23 437.325
PRISM 30 Aug 23:23:29 23:27:32 47° 309° (NW) 23:31:34 437.425
AISAT 30 Aug 23:23:54 23:28:15 48° 258° (WSW) 23:32:39 437.250
QB50P1 30 Aug 23:30:04 23:33:44 27° 91° (E) 23:37:23 145.935-145.965
ESTCUBE 1 30 Aug 23:30:55 23:35:03 35° 265° (W) 23:39:15 437.505/2401.250
HUMSAT D 30 Aug 23:32:02 23:34:17 14° 282° (WNW) 23:36:32 437.325/437.525
POPSAT HIP 1 30 Aug 23:40:25 23:44:13 31° 93° (E) 23:48:00 437.405
UNISAT 6 30 Aug 23:40:45 23:45:09 80° 111° (ESE) 23:49:28 437.425
CUBESAT XI-V 30 Aug 23:41:03 23:44:15 18° 4° (N) 23:47:27 437.345
Cosmos 2499 30 Aug 23:41:24 23:48:11 47° 271° (W) 23:54:51 435.465 / 435.565
STARS 30 Aug 23:42:28 23:45:41 20° 16° (NNE) 23:48:53 437.465
MOZHAYETS 4 30 Aug 23:47:06 23:50:44 24° 27° (NNE) 23:54:21
SWISSCUBE 30 Aug 23:47:27 23:52:00 46° 47° (NE) 23:56:34 437.505
O/OREOS (USA 219) 30 Aug 23:53:50 23:55:30 12° 262° (W) 23:57:10 437.305
50 SAT 30 Aug 23:59:04 00:02:10 26° 267° (W) 00:05:18 437.505
DUCHIFAT 1 31 Aug 00:03:50 00:07:49 38° 98° (E) 00:11:46 145.980
BEESAT 31 Aug 00:04:04 00:08:41 51° 50° (NE) 00:13:19 436.000
CUBEBUG 1 31 Aug 00:04:25 00:08:18 29° 269° (W) 00:12:13 437.445
SPROUT 31 Aug 00:04:32 00:08:40 42° 261° (W) 00:12:48 437.525
TISAT 1 31 Aug 00:09:58 00:14:14 80° 249° (WSW) 00:18:31 437.305
VELOX 1 31 Aug 00:11:45 00:15:40 29° 268° (W) 00:19:36 145.980
QB50P2 31 Aug 00:11:46 00:15:53 46° 101° (E) 00:20:00 145.880/145.840
POLYITAN 1 31 Aug 00:14:16 00:18:24 47° 102° (ESE) 00:22:29 437.675
DX 1 31 Aug 00:16:36 00:20:32 31° 266° (W) 00:24:31 434.975-435.025
ANTELSAT 31 Aug 00:17:42 00:22:03 68° 300° (WNW) 00:26:19 437.575/2403.000
NANOSAT C BR1 31 Aug 00:19:27 00:23:36 48° 102° (ESE) 00:27:42 145.865
SO-50 31 Aug 00:20:18 00:24:18 26° 141° (SE) 00:28:14 436.795
Oscar 19 31 Aug 00:22:40 00:26:10 18° 77° (ENE) 00:29:39 437.125/150
Gurwin Techsat 1B 31 Aug 00:22:52 00:25:09 13° 68° (ENE) 00:27:25 435.225
DANDE 31 Aug 00:43:37 00:46:47 82° 113° (ESE) 00:50:56 436.750
BUGSAT 1 31 Aug 00:44:07 00:48:08 41° 99° (E) 00:52:04 437.445
Cosmos 2491 31 Aug 00:46:25 00:54:34 39° 19° (NNE) 01:02:45 435.465 / 435.565
TIGRISAT 31 Aug 00:47:41 00:51:55 50° 307° (NW) 00:56:05 435.000
AO-7 31 Aug 00:48:17 00:49:52 11° 49° (NE) 00:51:27 29.400- 29.500
JAS-2 31 Aug 00:49:42 00:56:01 57° 102° (ESE) 01:03:07 435.910
STRAND 1 31 Aug 00:49:56 00:53:53 23° 351° (N) 00:57:51 437.568
UKube-1 31 Aug 00:50:50 00:54:22 24° 272° (W) 00:57:55 .
KKS-1 31 Aug 00:51:11 00:55:14 34° 40° (NE) 00:59:17 437.445
ITUPSAT 1 31 Aug 00:53:47 00:58:34 81° 62° (ENE) 01:03:22 437.325
CUSAT 1 31 Aug 00:54:15 00:58:20 56° 309° (NW) 01:03:46 437.405
PRISM 31 Aug 00:58:55 01:02:12 23° 331° (NNW) 01:05:29 437.425
GONETS M04 31 Aug 01:02:35 01:09:48 30° 293° (WNW) 01:17:01
AISAT 31 Aug 01:02:57 01:05:49 16° 281° (W) 01:08:41 437.250
QB50P1 31 Aug 01:05:48 01:10:05 87° 113° (ESE) 01:14:20 145.935-145.965
RS-15 31 Aug 01:06:16 01:16:43 39° 119° (ESE) 01:27:30 29.354- 29.394
ESTCUBE 1 31 Aug 01:11:31 01:13:15 12° 288° (WNW) 01:15:00 437.505/2401.250
POPSAT HIP 1 31 Aug 01:16:13 01:20:29 84° 299° (WNW) 01:24:43 437.405
CUBESAT XI-V 31 Aug 01:16:43 01:20:29 25° 28° (NNE) 01:24:16 437.345
STARS 31 Aug 01:17:10 01:21:08 33° 40° (NE) 01:25:06 437.465
UNISAT 6 31 Aug 01:17:40 01:21:42 37° 315° (NW) 01:25:40 437.425
MOZHAYETS 4 31 Aug 01:22:49 01:27:11 46° 50° (NE) 01:31:34
SWISSCUBE 31 Aug 01:24:59 01:29:45 70° 251° (WSW) 01:34:32 437.505
Cosmos 2499 31 Aug 01:34:48 01:39:41 20° 298° (WNW) 01:44:31 435.465 / 435.565
DUCHIFAT 1 31 Aug 01:39:36 01:43:50 67° 300° (WNW) 01:48:00 145.980
BEESAT 31 Aug 01:41:47 01:46:32 61° 253° (WSW) 01:51:17 436.000
SPROUT 31 Aug 01:43:27 01:45:44 14° 284° (WNW) 01:48:04 437.525
ITAMSAT 1 31 Aug 01:44:58 01:48:02 16° 75° (ENE) 01:51:06 435.822/435.867
TISAT 1 31 Aug 01:46:57 01:50:31 25° 270° (W) 01:54:04 437.305
QB50P2 31 Aug 01:47:41 01:51:53 57° 304° (NW) 01:56:02 145.880/145.840
POLYITAN 1 31 Aug 01:50:12 01:54:22 56° 304° (NW) 01:58:31 437.675
ANTELSAT 31 Aug 01:54:35 01:58:19 28° 323° (NW) 02:02:00 437.575/2403.000
NANOSAT C BR1 31 Aug 01:55:19 01:59:29 55° 304° (NW) 02:03:37 145.865
DX 1 31 Aug 01:57:20 01:58:10 10° 289° (WNW) 01:58:59 434.975-435.025
SO-50 31 Aug 01:59:31 02:04:04 43° 164° (SSE) 02:08:31 436.795
Oscar 19 31 Aug 02:01:43 02:06:47 47° 101° (E) 02:11:50 437.125/150
Gurwin Techsat 1B 31 Aug 02:01:58 02:06:49 34° 92° (E) 02:11:38 435.225
BUGSAT 1 31 Aug 02:19:35 02:23:45 62° 302° (WNW) 02:27:51 437.445
TIGRISAT 31 Aug 02:24:30 02:28:00 24° 330° (NNW) 02:31:26 435.000
YUBILEINY 31 Aug 02:25:50 02:30:44 16° 44° (NE) 02:35:37 435.215
KKS-1 31 Aug 02:26:59 02:31:29 83° 64° (ENE) 02:36:01 437.445
DANDE 31 Aug 02:27:02 02:30:06 31° 323° (NW) 02:34:00 436.750
STRAND 1 31 Aug 02:27:51 02:31:54 24° 15° (NNE) 02:35:57 437.568
ITUPSAT 1 31 Aug 02:32:29 02:36:53 36° 264° (W) 02:41:18 437.325
PRISM 31 Aug 02:33:50 02:36:27 16° 354° (N) 02:39:04 437.425
JAS-2 31 Aug 02:35:06 02:41:22 69° 305° (NW) 02:48:28 435.910
CUSAT 1 31 Aug 02:37:31 02:41:31 29° 338° (NNW) 02:46:32 437.405
AO-7 31 Aug 02:39:45 02:46:24 25° 78° (ENE) 02:53:00 29.400- 29.500
QB50P1 31 Aug 02:41:46 02:45:38 34° 316° (NW) 02:49:28 145.935-145.965
Cosmos 2491 31 Aug 02:44:37 02:53:21 59° 49° (NE) 03:02:06 435.465 / 435.565
POPSAT HIP 1 31 Aug 02:52:11 02:55:58 32° 319° (NW) 02:59:44 437.405
CUBESAT XI-V 31 Aug 02:52:41 02:57:10 49° 51° (NE) 03:01:42 437.345
STARS 31 Aug 02:52:42 02:57:09 80° 63° (ENE) 03:01:38 437.465
UNISAT 6 31 Aug 02:54:23 02:57:36 20° 338° (NNW) 03:00:46 437.425
GONETS M04 31 Aug 02:59:23 03:03:42 15° 322° (NW) 03:08:00
MOZHAYETS 4 31 Aug 02:59:47 03:04:20 65° 253° (WSW) 03:08:55
SWISSCUBE 31 Aug 03:04:29 03:08:22 24° 273° (W) 03:12:16 437.505
DUCHIFAT 1 31 Aug 03:15:28 03:19:05 28° 323° (NW) 03:22:40 145.980
RS-15 31 Aug 03:15:40 03:27:19 62° 149° (SSE) 03:39:20 29.354- 29.394
BEESAT 31 Aug 03:21:36 03:25:15 21° 276° (W) 03:28:55 436.000
QB50P2 31 Aug 03:23:39 03:27:08 25° 327° (NNW) 03:30:36 145.880/145.840
ITAMSAT 1 31 Aug 03:23:59 03:28:55 42° 98° (E) 03:33:51 435.822/435.867
POLYITAN 1 31 Aug 03:26:09 03:29:38 25° 327° (NNW) 03:33:05 437.675
ANTELSAT 31 Aug 03:31:06 03:34:03 18° 347° (NNW) 03:36:57 437.575/2403.000
NANOSAT C BR1 31 Aug 03:31:13 03:34:39 24° 327° (NNW) 03:38:05 145.865
BRITE-PL 31 Aug 03:39:03 03:41:23 12° 62° (ENE) 03:43:42 437.365/2234.400
SO-50 31 Aug 03:39:30 03:44:06 47° 188° (S) 03:48:34 436.795
Oscar 19 31 Aug 03:41:13 03:46:26 68° 303° (WNW) 03:51:36 437.125/150
Gurwin Techsat 1B 31 Aug 03:42:03 03:47:26 88° 116° (ESE) 03:52:47 435.225
BUGSAT 1 31 Aug 03:55:08 03:58:39 26° 325° (NW) 04:02:07 437.445
TIGRISAT 31 Aug 04:00:47 04:03:36 17° 353° (N) 04:06:22 435.000
KKS-1 31 Aug 04:04:26 04:08:32 33° 265° (W) 04:12:38 437.445
STRAND 1 31 Aug 04:05:28 04:10:09 38° 39° (NE) 04:14:51 437.568
PRISM 31 Aug 04:07:44 04:10:36 18° 17° (NNE) 04:13:29 437.425
Cosmos 2504 31 Aug 04:08:18 04:12:48 17° 54° (NE) 04:17:09 435.465 / 435.565
DANDE 31 Aug 04:11:28 04:14:16 19° 351° (N) 04:17:37 436.750
ITUPSAT 1 31 Aug 04:14:05 04:16:09 13° 288° (WNW) 04:18:15 437.325
YUBILEINY 31 Aug 04:17:18 04:24:51 33° 72° (ENE) 04:32:23 435.215
QB50P1 31 Aug 04:17:33 04:20:34 19° 339° (NNW) 04:23:34 145.935-145.965
JAS-2 31 Aug 04:20:14 04:25:54 39° 329° (NNW) 04:32:13 435.910
CUSAT 1 31 Aug 04:21:04 04:25:12 25° 5° (N) 04:30:15 437.405
AO-85 31 Aug 04:22:14 04:24:00 12° 119° (ESE) 04:25:44 145.980
POPSAT HIP 1 31 Aug 04:27:55 04:30:52 18° 341° (NNW) 04:33:48 437.405
STARS 31 Aug 04:29:54 04:33:58 34° 265° (W) 04:38:02 437.465
CUBESAT XI-V 31 Aug 04:29:57 04:34:34 63° 254° (WSW) 04:39:15 437.345
UNISAT 6 31 Aug 04:30:22 04:33:09 17° 1° (N) 04:35:54 437.425
AO-7 31 Aug 04:33:02 04:41:14 55° 105° (ESE) 04:49:21 29.400- 29.500
GOMX 1 31 Aug 04:33:56 04:36:44 14° 66° (ENE) 04:39:31 467.674
MOZHAYETS 4 31 Aug 04:38:49 04:42:22 22° 276° (W) 04:45:56
NOAA 15 31 Aug 04:40:56 04:43:42 14° 71° (ENE) 04:46:28 137.62
Cubesat XI-IV 31 Aug 04:41:42 04:43:59 13° 68° (ENE) 04:46:15 437.490
Cosmos 2491 31 Aug 04:41:58 04:50:47 76° 257° (WSW) 04:59:36 435.465 / 435.565
DUCHIFAT 1 31 Aug 04:51:01 04:53:48 17° 346° (NNW) 04:56:33 145.980
CUTE-I 31 Aug 04:52:05 04:54:53 14° 71° (ENE) 04:57:39 437.470
QB50P2 31 Aug 04:59:12 05:01:55 17° 350° (N) 05:04:37 145.880/145.840
LilacSat-2 31 Aug 05:01:24 05:02:13 11° 74° (ENE) 05:03:01 437.200
POLYITAN 1 31 Aug 05:01:42 05:04:24 17° 350° (N) 05:07:06 437.675
HORYU 2 31 Aug 05:02:19 05:06:10 28° 92° (E) 05:10:01 437.375
ITAMSAT 1 31 Aug 05:03:37 05:08:50 76° 301° (WNW) 05:14:01 435.822/435.867
NANOSAT C BR1 31 Aug 05:06:39 05:09:20 17° 350° (N) 05:12:01 145.865
ANTELSAT 31 Aug 05:06:40 05:09:34 17° 10° (N) 05:12:24 437.575/2403.000
BRITE-PL 31 Aug 05:16:41 05:21:42 31° 86° (E) 05:26:43 437.365/2234.400
SO-50 31 Aug 05:19:46 05:23:58 32° 211° (SSW) 05:28:05 436.795
Oscar 19 31 Aug 05:20:36 05:25:15 34° 327° (NNW) 05:29:54 437.125/150
Gurwin Techsat 1B 31 Aug 05:22:10 05:27:10 42° 319° (NW) 05:32:09 435.225
RS-15 31 Aug 05:27:04 05:39:05 73° 180° (S) 05:51:22 29.354- 29.394
BUGSAT 1 31 Aug 05:30:19 05:33:01 17° 348° (NNW) 05:35:42 437.445
TIGRISAT 31 Aug 05:36:02 05:39:05 19° 17° (NNE) 05:42:06 435.000
PRISM 31 Aug 05:41:21 05:45:02 31° 40° (NE) 05:48:44 437.425
STRAND 1 31 Aug 05:43:54 05:49:02 84° 61° (ENE) 05:54:10 437.568
KKS-1 31 Aug 05:45:05 05:46:30 11° 288° (WNW) 05:47:56 437.445
QB50P1 31 Aug 05:52:34 05:55:10 16° 2° (N) 05:57:46 145.935-145.965
DANDE 31 Aug 05:55:24 05:58:37 21° 18° (NNE) 06:02:31 436.750
Cosmos 2504 31 Aug 05:57:07 06:04:11 37° 81° (E) 06:10:52 435.465 / 435.565
DOVE 4 31 Aug 05:58:52 06:02:47 21° 78° (ENE) 06:06:33 437.250
AO-85 31 Aug 05:59:04 06:03:14 27° 141° (SE) 06:07:09 145.980
POPSAT HIP 1 31 Aug 06:02:51 06:05:28 16° 5° (N) 06:08:05 437.405
CUSAT 1 31 Aug 06:03:57 06:08:46 33° 30° (NNE) 06:14:45 437.405
NOAA 18 31 Aug 06:04:04 06:08:42 27° 87° (E) 06:13:17 137.9125
JAS-2 31 Aug 06:04:46 06:09:51 29° 354° (N) 06:15:29 435.910
UNISAT 6 31 Aug 06:05:23 06:08:43 21° 25° (NNE) 06:12:01 437.425
CUBESAT XI-V 31 Aug 06:09:17 06:12:52 21° 277° (W) 06:16:28 437.345
STARS 31 Aug 06:10:09 06:11:41 11° 288° (WNW) 06:13:12 437.465
GOMX 1 31 Aug 06:11:25 06:16:29 35° 90° (E) 06:21:23 467.674
YUBILEINY 31 Aug 06:11:44 06:20:30 70° 99° (E) 06:29:14 435.215
CINEMA 3 31 Aug 06:12:42 06:14:16 11° 68° (ENE) 06:15:47 145.822/145.860
NOAA 15 31 Aug 06:20:07 06:25:04 37° 95° (E) 06:30:01 137.62
Cubesat XI-IV 31 Aug 06:20:56 06:25:47 34° 93° (E) 06:30:36 437.490
HO-68 31 Aug 06:24:57 06:29:45 18° 70° (ENE) 06:34:32 435.675
DUCHIFAT 1 31 Aug 06:25:38 06:28:17 16° 9° (N) 06:30:56 145.980
AO-7 31 Aug 06:26:16 06:34:39 81° 311° (NW) 06:42:58 29.400- 29.500
CUTE-I 31 Aug 06:31:33 06:36:31 37° 95° (E) 06:41:27 437.470
QB50P2 31 Aug 06:33:44 06:36:31 17° 13° (NNE) 06:39:18 145.880/145.840
LilacSat-2 31 Aug 06:34:08 06:37:40 35° 97° (E) 06:41:09 437.200
POLYITAN 1 31 Aug 06:36:14 06:39:00 17° 13° (NNE) 06:41:46 437.675
HORYU 2 31 Aug 06:38:51 06:43:20 86° 117° (ESE) 06:47:47 437.375
Cosmos 2491 31 Aug 06:38:53 06:46:39 37° 285° (WNW) 06:54:25 435.465 / 435.565
NANOSAT C BR1 31 Aug 06:41:06 06:43:52 17° 14° (NNE) 06:46:39 145.865
ANTELSAT 31 Aug 06:41:34 06:45:14 26° 34° (NNE) 06:48:51 437.575/2403.000
ITAMSAT 1 31 Aug 06:43:12 06:47:55 36° 325° (NW) 06:52:36 435.822/435.867
GONETS M04 31 Aug 06:47:03 06:48:58 11° 22° (NNE) 06:50:53
BRITE-PL 31 Aug 06:55:15 07:00:58 77° 109° (ESE) 07:06:42 437.365/2234.400
SEEDS 31 Aug 06:58:05 07:00:01 13° 75° (ENE) 07:01:56 437.485
Oscar 19 31 Aug 06:59:29 07:03:33 24° 351° (N) 07:07:38 437.125/150
SO-50 31 Aug 07:00:36 07:03:21 16° 234° (SW) 07:06:04 436.795
Gurwin Techsat 1B 31 Aug 07:01:53 07:06:14 26° 343° (NNW) 07:10:35 435.225
BUGSAT 1 31 Aug 07:04:32 07:07:12 17° 11° (N) 07:09:51 437.445
TIGRISAT 31 Aug 07:10:56 07:14:51 31° 40° (NE) 07:18:43 435.000
PRISM 31 Aug 07:15:51 07:20:01 81° 61° (ENE) 07:24:13 437.425
AAUSAT CUBESAT 2 31 Aug 07:18:04 07:19:42 12° 74° (ENE) 07:21:21 437.432
STRAND 1 31 Aug 07:24:01 07:28:45 37° 265° (W) 07:33:29 437.568
QB50P1 31 Aug 07:26:38 07:29:49 21° 26° (NNE) 07:33:00 145.935-145.965
CANX-2 31 Aug 07:27:02 07:30:26 23° 86° (E) 07:33:50 2200.000
COMPASS 1 31 Aug 07:29:35 07:32:07 16° 79° (ENE) 07:34:41 437.405
UWE-3 31 Aug 07:30:36 07:31:52 11° 71° (ENE) 07:33:08 435.000/436.395/437.385
CUTE 1.7 + AOD 2 31 Aug 07:32:20 07:35:44 23° 86° (E) 07:39:06 437.475
DOVE 4 31 Aug 07:36:25 07:41:35 56° 102° (ESE) 07:46:28 437.250
POPSAT HIP 1 31 Aug 07:36:52 07:40:09 22° 28° (NNE) 07:43:25 437.405
AO-85 31 Aug 07:38:21 07:43:02 44° 164° (SSE) 07:47:21 145.980
DANDE 31 Aug 07:38:29 07:42:33 36° 43° (NE) 07:47:51 436.750
RS-15 31 Aug 07:38:58 07:50:52 62° 211° (SSW) 08:02:52 29.354- 29.394
UNISAT 6 31 Aug 07:40:30 07:44:41 40° 48° (NE) 07:48:48 437.425
CUBEBUG 2 31 Aug 07:40:32 07:43:09 16° 78° (ENE) 07:45:45 437.445
NOAA 18 31 Aug 07:44:47 07:50:19 69° 111° (ESE) 07:55:48 137.9125
CUSAT 1 31 Aug 07:46:15 07:51:45 61° 54° (NE) 07:58:45 437.405
JAS-2 31 Aug 07:48:34 07:53:40 33° 19° (NNE) 07:59:20 435.910
CINEMA 3 31 Aug 07:48:40 07:52:56 33° 92° (E) 07:56:58 145.822/145.860
Cosmos 2504 31 Aug 07:48:56 07:56:55 82° 107° (ESE) 08:04:23 435.465 / 435.565
GOMX 1 31 Aug 07:49:36 07:55:10 90° 266° (W) 08:00:33 467.674
DUCHIFAT 1 31 Aug 07:59:30 08:02:56 24° 32° (NNE) 08:06:22 145.980
NOAA 15 31 Aug 08:00:03 08:05:25 85° 298° (WNW) 08:10:46 137.62
Cubesat XI-IV 31 Aug 08:01:08 08:06:31 88° 113° (ESE) 08:11:52 437.490
AIST 1 31 Aug 08:04:32 08:08:19 28° 88° (E) 08:12:07
QB50P2 31 Aug 08:07:44 08:11:20 27° 36° (NE) 08:14:55 145.880/145.840
LilacSat-2 31 Aug 08:08:28 08:12:15 65° 300° (WNW) 08:16:01 437.200
YUBILEINY 31 Aug 08:08:53 08:17:41 63° 307° (NW) 08:26:28 435.215
POLYITAN 1 31 Aug 08:10:14 08:13:49 27° 36° (NE) 08:17:25 437.675
CUTE-I 31 Aug 08:11:45 08:17:08 84° 298° (WNW) 08:22:28 437.470
HO-68 31 Aug 08:12:46 08:19:35 43° 96° (E) 08:26:21 435.675
NANOSAT C BR1 31 Aug 08:15:01 08:18:38 27° 37° (NE) 08:22:14 145.865
HORYU 2 31 Aug 08:15:35 08:19:41 37° 317° (NW) 08:23:45 437.375
ANTELSAT 31 Aug 08:17:01 08:21:24 57° 56° (ENE) 08:25:43 437.575/2403.000
AO-7 31 Aug 08:19:00 08:27:01 54° 338° (NNW) 08:35:00 29.400- 29.500
ITAMSAT 1 31 Aug 08:22:18 08:26:25 24° 349° (N) 08:30:32 435.822/435.867
DELFI C3 31 Aug 08:24:05 08:24:50 10° 72° (ENE) 08:25:34 145.870
SEEDS 31 Aug 08:32:55 08:36:53 39° 97° (E) 08:40:52 437.485
BRITE-PL 31 Aug 08:33:52 08:39:19 49° 312° (NW) 08:44:47 437.365/2234.400
Oscar 11 31 Aug 08:34:33 08:37:45 20° 83° (E) 08:40:58 145.826/435.025
Cosmos 2491 31 Aug 08:35:42 08:40:59 18° 313° (NW) 08:46:17 435.465 / 435.565
GONETS M04 31 Aug 08:36:21 08:42:11 20° 52° (NE) 08:48:02
Oscar 19 31 Aug 08:37:31 08:41:42 25° 15° (NNE) 08:45:52 437.125/150
BUGSAT 1 31 Aug 08:38:05 08:41:33 25° 34° (NNE) 08:45:00 437.445
Gurwin Techsat 1B 31 Aug 08:40:49 08:45:00 24° 7° (N) 08:49:12 435.225
TIGRISAT 31 Aug 08:46:43 08:51:12 77° 62° (ENE) 08:55:36 435.000
FUNcube-1 31 Aug 08:47:32 08:50:48 21° 85° (E) 08:54:01 145.935
PRISM 31 Aug 08:52:02 08:55:46 31° 265° (W) 08:59:32 437.425
AAUSAT CUBESAT 2 31 Aug 08:52:30 08:56:23 37° 96° (E) 09:00:17 437.432
Cosmos 2499 31 Aug 08:54:08 08:58:12 16° 54° (NE) 09:02:09 435.465 / 435.565
QB50P1 31 Aug 09:00:50 09:04:51 40° 48° (NE) 09:08:51 145.935-145.965
CANX-2 31 Aug 09:02:44 09:07:00 72° 109° (ESE) 09:11:16 2200.000
COMPASS 1 31 Aug 09:04:36 09:08:41 48° 101° (ESE) 09:12:46 437.405
BEESAT 3 31 Aug 09:05:44 09:07:08 12° 125° (SE) 09:08:32 437.485
UWE-3 31 Aug 09:05:46 09:09:41 34° 95° (E) 09:13:31 435.000/436.395/437.385
STRAND 1 31 Aug 09:06:58 09:09:27 13° 289° (WNW) 09:11:58 437.568
CUTE 1.7 + AOD 2 31 Aug 09:08:02 09:12:17 72° 108° (ESE) 09:16:33 437.475
POPSAT HIP 1 31 Aug 09:11:10 09:15:15 44° 50° (NE) 09:19:19 437.405
ZACube-1 31 Aug 09:11:13 09:14:56 29° 92° (E) 09:18:36 437.345
DOVE 4 31 Aug 09:14:16 09:19:24 57° 306° (NW) 09:24:17 437.250
CUBEBUG 2 31 Aug 09:16:40 09:20:52 48° 101° (E) 09:24:58 437.445
UNISAT 6 31 Aug 09:16:47 09:21:17 75° 250° (WSW) 09:25:42 437.425
AO-85 31 Aug 09:18:25 09:23:04 48° 187° (S) 09:27:19 145.980
DANDE 31 Aug 09:21:15 09:25:49 85° 64° (ENE) 09:32:00 436.750
HUMSAT D 31 Aug 09:22:39 09:25:10 16° 80° (E) 09:27:41 437.325/437.525
NOAA 18 31 Aug 09:25:38 09:31:00 53° 314° (NW) 09:36:18 137.9125
CINEMA 3 31 Aug 09:25:51 09:30:35 83° 294° (WNW) 09:35:03 145.822/145.860
GOMX 1 31 Aug 09:27:47 09:32:57 41° 317° (NW) 09:37:59 467.674
CUSAT 1 31 Aug 09:28:20 09:33:58 63° 254° (WSW) 09:41:04 437.405
JAS-2 31 Aug 09:32:23 09:37:52 53° 46° (NE) 09:44:05 435.910
DUCHIFAT 1 31 Aug 09:33:54 09:38:03 53° 55° (NE) 09:42:12 145.980
NOAA 15 31 Aug 09:39:58 09:44:53 40° 322° (NW) 09:49:49 137.62
AIST 1 31 Aug 09:41:07 09:45:33 90° 251° (WSW) 09:50:01
Cubesat XI-IV 31 Aug 09:41:22 09:46:23 42° 319° (NW) 09:51:22 437.490
QB50P2 31 Aug 09:42:25 09:46:40 64° 58° (ENE) 09:50:54 145.880/145.840
LilacSat-2 31 Aug 09:43:01 09:46:07 24° 321° (NW) 09:49:13 437.200
Cosmos 2504 31 Aug 09:43:17 09:50:57 52° 313° (NW) 09:58:10 435.465 / 435.565
POLYITAN 1 31 Aug 09:44:55 09:49:09 64° 59° (ENE) 09:53:24 437.675
NANOSAT C BR1 31 Aug 09:49:40 09:53:54 66° 59° (ENE) 09:58:08 145.865
RS-15 31 Aug 09:50:44 10:01:30 39° 241° (WSW) 10:12:19 29.354- 29.394
CUTE-I 31 Aug 09:51:56 09:56:52 39° 322° (NW) 10:01:47 437.470
HORYU 2 31 Aug 09:52:05 09:55:25 21° 340° (NNW) 09:58:44 437.375
ANTELSAT 31 Aug 09:53:57 09:58:18 48° 258° (WSW) 10:02:35 437.575/2403.000
DELFI C3 31 Aug 09:57:15 10:00:55 33° 95° (E) 10:04:34 145.870
ITAMSAT 1 31 Aug 10:00:35 10:04:44 25° 13° (NNE) 10:08:53 435.822/435.867
HO-68 31 Aug 10:00:51 10:08:06 90° 110° (ESE) 10:15:19 435.675
YUBILEINY 31 Aug 10:08:03 10:16:17 40° 337° (NNW) 10:24:30 435.215
SEEDS 31 Aug 10:08:42 10:12:53 66° 299° (WNW) 10:17:05 437.485
Oscar 11 31 Aug 10:10:26 10:14:45 61° 106° (ESE) 10:19:02 145.826/435.025
AO-7 31 Aug 10:11:00 10:18:51 48° 5° (N) 10:26:41 29.400- 29.500
BRITE-PL 31 Aug 10:12:12 10:16:56 28° 335° (NNW) 10:21:43 437.365/2234.400
BUGSAT 1 31 Aug 10:12:13 10:16:23 57° 56° (ENE) 10:20:33 437.445
Oscar 19 31 Aug 10:15:18 10:20:05 39° 39° (NE) 10:24:55 437.125/150
Gurwin Techsat 1B 31 Aug 10:19:12 10:23:54 33° 31° (NNE) 10:28:37 435.225
FUNcube-1 31 Aug 10:23:36 10:27:49 70° 108° (ESE) 10:31:57 145.935
TIGRISAT 31 Aug 10:24:11 10:28:19 35° 265° (W) 10:32:22 435.000
AAUSAT CUBESAT 2 31 Aug 10:28:02 10:32:12 69° 299° (WNW) 10:36:22 437.432
GONETS M04 31 Aug 10:28:43 10:36:43 41° 80° (E) 10:44:48
BEESAT 2 31 Aug 10:31:13 10:34:13 20° 138° (SE) 10:37:13 435.950
PRISM 31 Aug 10:32:07 10:32:25 10° 288° (WNW) 10:32:43 437.425
QB50P1 31 Aug 10:36:15 10:40:32 72° 251° (WSW) 10:44:48 145.935-145.965
M-CUBED/EXP-1 PRIME 31 Aug 10:36:45 10:38:31 12° 84° (E) 10:40:16 437.505
CANX-2 31 Aug 10:38:47 10:42:45 39° 311° (NW) 10:46:43 2200.000
COMPASS 1 31 Aug 10:40:18 10:44:23 54° 304° (NW) 10:48:29 437.405
BEESAT 3 31 Aug 10:40:24 10:43:44 26° 147° (SSE) 10:47:06 437.485
PCSat 31 Aug 10:41:11 10:44:12 15° 112° (ESE) 10:47:13 145.827
UWE-3 31 Aug 10:42:16 10:46:33 74° 298° (WNW) 10:50:44 435.000/436.395/437.385
Cosmos 2499 31 Aug 10:42:36 10:49:19 36° 81° (E) 10:55:43 435.465 / 435.565
CUTE 1.7 + AOD 2 31 Aug 10:44:03 10:48:01 39° 311° (NW) 10:51:59 437.475
POPSAT HIP 1 31 Aug 10:46:45 10:51:01 63° 253° (WSW) 10:55:16 437.405
ZACube-1 31 Aug 10:47:30 10:51:45 85° 291° (WNW) 10:55:55 437.345
DOVE 4 31 Aug 10:51:56 10:56:25 29° 329° (NNW) 11:00:44 437.250
CUBEBUG 2 31 Aug 10:53:24 10:57:40 55° 304° (NW) 11:01:48 437.445
UNISAT 6 31 Aug 10:55:03 10:58:43 24° 272° (W) 11:02:20 437.425
HUMSAT D 31 Aug 10:57:45 11:01:46 50° 103° (ESE) 11:05:45 437.325/437.525
AO-85 31 Aug 10:58:44 11:02:56 33° 211° (SSW) 11:06:48 145.980
AISAT 31 Aug 10:59:35 11:02:32 17° 80° (E) 11:05:29 437.250
CINEMA 3 31 Aug 11:03:07 11:07:22 34° 319° (NW) 11:11:25 145.822/145.860
DANDE 31 Aug 11:04:07 11:08:26 36° 263° (W) 11:14:00 436.750
GOMX 1 31 Aug 11:05:38 11:10:03 25° 340° (NNW) 11:14:26 467.674
NOAA 18 31 Aug 11:06:11 11:10:57 31° 338° (NNW) 11:15:42 137.9125
ESTCUBE 1 31 Aug 11:08:04 11:11:51 25° 88° (E) 11:15:37 437.505/2401.250
DUCHIFAT 1 31 Aug 11:09:43 11:13:52 50° 257° (WSW) 11:18:01 145.980
CUSAT 1 31 Aug 11:10:33 11:15:22 27° 276° (W) 11:21:02 437.405
50 SAT 31 Aug 11:12:37 11:14:55 16° 83° (E) 11:17:12 437.505
JAS-2 31 Aug 11:17:23 11:22:58 71° 251° (WSW) 11:29:18 435.910
LilacSat-2 31 Aug 11:17:25 11:19:27 14° 344° (NNW) 11:21:29 437.200
QB50P2 31 Aug 11:18:40 11:22:44 41° 261° (W) 11:26:49 145.880/145.840
NOAA 15 31 Aug 11:19:26 11:23:46 26° 346° (NNW) 11:28:06 137.62
AIST 1 31 Aug 11:19:40 11:23:42 33° 315° (NW) 11:27:45
POLYITAN 1 31 Aug 11:21:11 11:25:14 41° 261° (W) 11:29:18 437.675
Cubesat XI-IV 31 Aug 11:21:12 11:25:34 27° 343° (NNW) 11:29:57 437.490
NANOSAT C BR1 31 Aug 11:25:54 11:29:55 40° 261° (W) 11:33:58 145.865
HORYU 2 31 Aug 11:27:50 11:30:50 18° 4° (N) 11:33:50 437.375
CUTE-I 31 Aug 11:31:41 11:35:59 26° 346° (NNW) 11:40:18 437.470
DELFI C3 31 Aug 11:32:06 11:36:07 74° 297° (WNW) 11:40:08 145.870
ANTELSAT 31 Aug 11:33:15 11:36:04 16° 281° (W) 11:38:51 437.575/2403.000
SPROUT 31 Aug 11:35:50 11:38:50 18° 82° (E) 11:41:50 437.525
CUBEBUG 1 31 Aug 11:37:24 11:41:17 28° 91° (E) 11:45:08 437.445
ITAMSAT 1 31 Aug 11:38:32 11:43:16 37° 37° (NE) 11:48:02 435.822/435.867
Cosmos 2504 31 Aug 11:39:15 11:46:08 33° 342° (NNW) 11:52:41 435.465 / 435.565
AIST 2 31 Aug 11:41:44 11:43:26 12° 124° (SE) 11:45:08 435.215
SEEDS 31 Aug 11:44:35 11:48:08 27° 322° (NW) 11:51:41 437.485
VELOX 1 31 Aug 11:46:13 11:50:06 28° 91° (E) 11:53:58 145.980
Oscar 11 31 Aug 11:46:45 11:50:53 46° 309° (NW) 11:55:01 145.826/435.025
BUGSAT 1 31 Aug 11:47:49 11:51:56 47° 258° (WSW) 11:56:02 437.445
HO-68 31 Aug 11:48:41 11:55:35 52° 326° (NW) 12:02:28 435.675
DX 1 31 Aug 11:49:29 11:53:03 23° 88° (E) 11:56:36 434.975-435.025
BRITE-PL 31 Aug 11:49:52 11:54:08 23° 359° (N) 11:58:29 437.365/2234.400
Oscar 19 31 Aug 11:53:53 11:59:06 85° 62° (ENE) 12:04:23 437.125/150
Gurwin Techsat 1B 31 Aug 11:58:02 12:03:19 65° 55° (NE) 12:08:37 435.225
FUNcube-1 31 Aug 12:00:02 12:03:58 40° 311° (NW) 12:07:51 145.935
AUBIESAT-1 31 Aug 12:00:57 12:04:43 30° 103° (ESE) 12:08:14 437.475
AO-7 31 Aug 12:02:39 12:10:49 60° 31° (NNE) 12:18:56 29.400- 29.500
RS-15 31 Aug 12:02:59 12:10:15 18° 271° (W) 12:17:33 29.354- 29.394
AAUSAT CUBESAT 2 31 Aug 12:03:43 12:07:15 27° 321° (NW) 12:10:48 437.432
TIGRISAT 31 Aug 12:04:39 12:06:19 12° 288° (WNW) 12:07:58 435.000
BEESAT 2 31 Aug 12:07:35 12:11:18 37° 161° (SSE) 12:15:02 435.950
YUBILEINY 31 Aug 12:07:38 12:15:41 36° 8° (N) 12:23:40 435.215
M-CUBED/EXP-1 PRIME 31 Aug 12:10:15 12:14:20 37° 107° (ESE) 12:18:06 437.505
QB50P1 31 Aug 12:13:37 12:17:02 23° 273° (W) 12:20:26 145.935-145.965
CANX-2 31 Aug 12:14:45 12:17:51 20° 334° (NNW) 12:20:57 2200.000
COMPASS 1 31 Aug 12:16:02 12:19:23 24° 326° (NW) 12:22:44 437.405
BEESAT 3 31 Aug 12:17:04 12:20:49 42° 170° (S) 12:24:36 437.485
UWE-3 31 Aug 12:18:56 12:22:38 29° 321° (NW) 12:26:15 435.000/436.395/437.385
CUTE 1.7 + AOD 2 31 Aug 12:20:00 12:23:06 20° 334° (NNW) 12:26:12 437.475
PCSat 31 Aug 12:21:24 12:26:18 35° 135° (SE) 12:31:11 145.827
UKube-1 31 Aug 12:21:56 12:25:48 30° 93° (E) 12:29:38 .
GONETS M04 31 Aug 12:23:59 12:32:49 84° 108° (ESE) 12:41:45
ZACube-1 31 Aug 12:23:59 12:27:44 32° 317° (NW) 12:31:26 437.345
POPSAT HIP 1 31 Aug 12:24:23 12:27:37 20° 275° (W) 12:30:49 437.405
DOVE 4 31 Aug 12:29:03 12:32:56 21° 353° (N) 12:36:43 437.250
CUBEBUG 2 31 Aug 12:30:10 12:33:43 24° 327° (NNW) 12:37:10 437.445
HUMSAT D 31 Aug 12:33:31 12:37:30 51° 305° (NW) 12:41:29 437.325/437.525
Cosmos 2499 31 Aug 12:34:07 12:41:47 81° 106° (ESE) 12:48:59 435.465 / 435.565
AISAT 31 Aug 12:35:39 12:40:03 50° 103° (ESE) 12:44:25 437.250
AO-85 31 Aug 12:39:37 12:42:16 15° 235° (SW) 12:44:47 145.980
CINEMA 3 31 Aug 12:40:06 12:43:33 20° 343° (NNW) 12:46:53 145.822/145.860
O/OREOS (USA 219) 31 Aug 12:40:53 12:43:37 16° 104° (ESE) 12:46:22 437.305
GOMX 1 31 Aug 12:42:41 12:46:50 22° 4° (N) 12:50:58 467.674
ESTCUBE 1 31 Aug 12:44:48 12:49:23 75° 111° (ESE) 12:53:57 437.505/2401.250
50 SAT 31 Aug 12:45:40 12:49:16 55° 105° (ESE) 12:52:53 437.505
NOAA 18 31 Aug 12:46:01 12:50:30 26° 3° (N) 12:55:00 137.9125
DUCHIFAT 1 31 Aug 12:47:51 12:50:33 16° 280° (W) 12:53:16 145.980
DANDE 31 Aug 12:47:54 12:50:15 13° 285° (WNW) 12:52:51 436.750
LilacSat-2 31 Aug 12:50:50 12:52:33 13° 7° (N) 12:54:14 437.200
CUSAT 1 31 Aug 12:54:26 12:55:46 11° 299° (WNW) 12:57:09 437.405
QB50P2 31 Aug 12:57:29 12:59:41 14° 284° (WNW) 13:01:52 145.880/145.840
NOAA 15 31 Aug 12:58:07 13:02:22 25° 10° (N) 13:06:38 137.62
AIST 1 31 Aug 12:59:28 13:02:35 18° 340° (NNW) 13:05:43
POLYITAN 1 31 Aug 13:00:02 13:02:11 14° 284° (WNW) 13:04:21 437.675
Cubesat XI-IV 31 Aug 13:00:16 13:04:29 25° 7° (N) 13:08:43 437.490
HORYU 2 31 Aug 13:02:45 13:06:19 24° 27° (NNE) 13:09:52 437.375
JAS-2 31 Aug 13:04:28 13:09:15 28° 278° (W) 13:14:31 435.910
NANOSAT C BR1 31 Aug 13:04:46 13:06:49 13° 284° (WNW) 13:08:53 145.865
DELFI C3 31 Aug 13:07:10 13:10:35 27° 319° (NW) 13:14:01 145.870
CUTE-I 31 Aug 13:10:37 13:14:52 25° 10° (N) 13:19:07 437.470
SWISSCUBE 31 Aug 13:11:01 13:13:33 14° 75° (ENE) 13:16:06 437.505
SPROUT 31 Aug 13:11:26 13:15:42 56° 104° (ESE) 13:19:56 437.525
CUBEBUG 1 31 Aug 13:13:39 13:18:09 86° 113° (ESE) 13:22:37 437.445
TISAT 1 31 Aug 13:15:10 13:18:48 27° 91° (E) 13:22:26 437.305
ITAMSAT 1 31 Aug 13:17:12 13:22:24 80° 60° (ENE) 13:27:36 435.822/435.867
AIST 2 31 Aug 13:17:17 13:20:49 28° 146° (SSE) 13:24:23 435.215
SEEDS 31 Aug 13:20:12 13:22:50 16° 345° (NNW) 13:25:29 437.485
VELOX 1 31 Aug 13:22:39 13:27:11 84° 113° (ESE) 13:31:41 145.980
Oscar 11 31 Aug 13:22:59 13:26:20 22° 331° (NNW) 13:29:41 145.826/435.025
DX 1 31 Aug 13:25:33 13:29:59 72° 110° (ESE) 13:34:24 434.975-435.025
BUGSAT 1 31 Aug 13:25:46 13:28:19 15° 281° (W) 13:30:52 437.445
BRITE-PL 31 Aug 13:26:46 13:31:19 27° 23° (NNE) 13:36:00 437.365/2234.400
BEESAT 31 Aug 13:27:29 13:30:26 16° 78° (ENE) 13:33:24 436.000
Oscar 19 31 Aug 13:34:09 13:38:58 37° 265° (W) 13:43:50 437.125/150
Cosmos 2504 31 Aug 13:35:11 13:41:52 32° 13° (NNE) 13:48:17 435.465 / 435.565
AUBIESAT-1 31 Aug 13:35:21 13:39:42 89° 121° (ESE) 13:43:43 437.475
HO-68 31 Aug 13:35:53 13:42:23 39° 352° (N) 13:48:52 435.675
FUNcube-1 31 Aug 13:36:23 13:39:28 20° 334° (NNW) 13:42:31 145.935
Gurwin Techsat 1B 31 Aug 13:38:20 13:43:32 51° 258° (WSW) 13:48:45 435.225
AAUSAT CUBESAT 2 31 Aug 13:39:09 13:41:46 16° 344° (NNW) 13:44:24 437.432
M-CUBED/EXP-1 PRIME 31 Aug 13:44:47 13:49:14 77° 310° (NW) 13:53:18 437.505
BEESAT 2 31 Aug 13:44:52 13:48:42 44° 184° (S) 13:52:32 435.950
CANX-2 31 Aug 13:50:05 13:52:33 15° 357° (N) 13:55:00 2200.000
COMPASS 1 31 Aug 13:51:24 13:53:52 16° 349° (N) 13:56:23 437.405
BEESAT 3 31 Aug 13:54:20 13:58:05 41° 193° (SSW) 14:01:50 437.485
AO-7 31 Aug 13:55:04 14:03:28 84° 238° (WSW) 14:11:53 29.400- 29.500
UWE-3 31 Aug 13:55:18 13:58:08 17° 344° (NNW) 14:00:56 435.000/436.395/437.385
CUTE 1.7 + AOD 2 31 Aug 13:55:20 13:57:47 15° 357° (N) 14:00:14 437.475
UKube-1 31 Aug 13:57:59 14:02:22 89° 303° (WNW) 14:06:45 .
ZACube-1 31 Aug 14:00:17 14:03:08 18° 341° (NNW) 14:05:58 437.345
PCSat 31 Aug 14:03:45 14:09:07 60° 159° (SSE) 14:14:29 145.827
DOVE 4 31 Aug 14:05:16 14:09:20 23° 16° (NNE) 14:13:20 437.250
YUBILEINY 31 Aug 14:06:14 14:14:46 49° 39° (NE) 14:23:14 435.215
CUBEBUG 2 31 Aug 14:06:30 14:09:15 17° 351° (N) 14:11:59 437.445
HUMSAT D 31 Aug 14:09:19 14:12:32 23° 327° (NNW) 14:15:45 437.325/437.525
AISAT 31 Aug 14:12:15 14:16:41 57° 305° (NW) 14:21:05 437.250
Cosmos 2491 31 Aug 14:14:41 14:19:29 16° 43° (NE) 14:24:18 435.465 / 435.565
CINEMA 3 31 Aug 14:16:11 14:19:26 18° 6° (N) 14:22:35 145.822/145.860
ITUPSAT 1 31 Aug 14:17:28 14:21:33 27° 89° (E) 14:25:37 437.325
O/OREOS (USA 219) 31 Aug 14:17:46 14:22:04 42° 127° (SE) 14:26:24 437.305
GOMX 1 31 Aug 14:19:03 14:23:41 29° 27° (NNE) 14:28:20 467.674
50 SAT 31 Aug 14:19:23 14:22:51 42° 307° (NW) 14:26:19 437.505
ESTCUBE 1 31 Aug 14:21:47 14:26:04 41° 313° (NW) 14:30:21 437.505/2401.250
GONETS M04 31 Aug 14:21:51 14:30:29 54° 315° (NW) 14:39:12
LilacSat-2 31 Aug 14:23:04 14:25:44 18° 29° (NNE) 14:28:23 437.200
NOAA 18 31 Aug 14:25:14 14:30:08 34° 27° (NNE) 14:35:01 137.9125
Cosmos 2499 31 Aug 14:28:11 14:35:31 51° 313° (NW) 14:42:29 435.465 / 435.565
NOAA 15 31 Aug 14:36:22 14:41:10 36° 34° (NNE) 14:45:59 137.62
HORYU 2 31 Aug 14:37:55 14:42:12 47° 50° (NE) 14:46:29 437.375
Cubesat XI-IV 31 Aug 14:38:47 14:43:32 34° 32° (NNE) 14:48:17 437.490
AIST 1 31 Aug 14:39:07 14:41:54 16° 6° (N) 14:44:39
MOZHAYETS 4 31 Aug 14:40:30 14:43:10 15° 76° (ENE) 14:45:51
DELFI C3 31 Aug 14:42:03 14:44:30 16° 342° (NNW) 14:46:57 145.870
SPROUT 31 Aug 14:47:32 14:51:43 49° 307° (NW) 14:55:52 437.525
SWISSCUBE 31 Aug 14:48:10 14:52:41 40° 98° (E) 14:57:11 437.505
CUTE-I 31 Aug 14:49:06 14:53:55 36° 34° (NE) 14:58:45 437.470
CUBEBUG 1 31 Aug 14:50:07 14:54:13 37° 316° (NW) 14:58:18 437.445
TISAT 1 31 Aug 14:50:45 14:55:02 87° 109° (ESE) 14:59:16 437.305
AIST 2 31 Aug 14:54:45 14:58:43 43° 169° (S) 15:02:42 435.215
SEEDS 31 Aug 14:54:50 14:57:19 15° 9° (N) 14:59:48 437.485
JAS-2 31 Aug 14:55:30 14:56:51 11° 305° (NW) 14:58:15 435.910
ITAMSAT 1 31 Aug 14:57:30 15:02:21 39° 263° (W) 15:07:14 435.822/435.867
Oscar 11 31 Aug 14:58:41 15:01:21 16° 354° (N) 15:04:00 145.826/435.025
VELOX 1 31 Aug 14:59:18 15:03:27 38° 316° (NW) 15:07:35 145.980
DX 1 31 Aug 15:01:55 15:06:06 42° 313° (NW) 15:10:15 434.975-435.025
BRITE-PL 31 Aug 15:03:44 15:08:53 46° 46° (NE) 15:14:16 437.365/2234.400
BEESAT 31 Aug 15:04:49 15:09:26 45° 101° (E) 15:14:02 436.000
AUBIESAT-1 31 Aug 15:09:52 15:13:57 40° 329° (NNW) 15:17:45 437.475
FUNcube-1 31 Aug 15:12:06 15:14:33 15° 358° (N) 15:17:00 145.935
AAUSAT CUBESAT 2 31 Aug 15:13:38 15:16:02 15° 7° (N) 15:18:25 437.432
Oscar 19 31 Aug 15:17:14 15:19:52 14° 289° (WNW) 15:22:30 437.125/150
M-CUBED/EXP-1 PRIME 31 Aug 15:19:19 15:23:26 37° 333° (NNW) 15:27:16 437.505
Gurwin Techsat 1B 31 Aug 15:20:56 15:24:44 19° 282° (WNW) 15:28:33 435.225
HO-68 31 Aug 15:22:23 15:28:59 41° 18° (NNE) 15:35:36 435.675
BEESAT 2 31 Aug 15:22:26 15:26:01 32° 207° (SSW) 15:29:36 435.950
CANX-2 31 Aug 15:24:19 15:27:11 18° 21° (NNE) 15:30:05 2200.000
COMPASS 1 31 Aug 15:25:41 15:28:13 16° 13° (NNE) 15:30:44 437.405
CUTE 1.7 + AOD 2 31 Aug 15:29:33 15:32:25 18° 21° (NNE) 15:35:18 437.475
Cosmos 2504 31 Aug 15:29:58 15:37:11 47° 43° (NE) 15:44:06 435.465 / 435.565
UWE-3 31 Aug 15:30:44 15:33:22 16° 8° (N) 15:35:59 435.000/436.395/437.385
BEESAT 3 31 Aug 15:31:51 15:35:08 25° 215° (SW) 15:38:24 437.485
UKube-1 31 Aug 15:34:12 15:38:10 35° 318° (NW) 15:42:06 .
ZACube-1 31 Aug 15:35:43 15:38:13 15° 4° (N) 15:40:43 437.345
KKS-1 31 Aug 15:40:05 15:43:46 24° 88° (E) 15:47:24 437.445
DOVE 4 31 Aug 15:41:12 15:46:01 36° 40° (NE) 15:50:45 437.250
CUBEBUG 2 31 Aug 15:41:44 15:44:39 17° 15° (NNE) 15:47:31 437.445
HUMSAT D 31 Aug 15:44:44 15:47:06 15° 351° (N) 15:49:28 437.325/437.525
PCSat 31 Aug 15:46:54 15:52:19 70° 184° (S) 15:57:45 145.827
AISAT 31 Aug 15:48:51 15:52:35 26° 328° (NNW) 15:56:20 437.250
AO-7 31 Aug 15:49:26 15:57:19 43° 264° (W) 16:05:11 29.400- 29.500
CINEMA 3 31 Aug 15:51:30 15:55:25 25° 30° (NNE) 15:59:15 145.822/145.860
50 SAT 31 Aug 15:53:13 15:55:47 18° 329° (NNW) 15:58:21 437.505
ITUPSAT 1 31 Aug 15:55:18 16:00:07 78° 113° (ESE) 16:04:55 437.325
GOMX 1 31 Aug 15:55:43 16:00:59 52° 51° (NE) 16:06:20 467.674
LilacSat-2 31 Aug 15:55:45 15:59:20 40° 52° (NE) 16:02:56 437.200
O/OREOS (USA 219) 31 Aug 15:56:43 16:01:17 89° 339° (NNW) 16:05:54 437.305
ESTCUBE 1 31 Aug 15:58:36 16:02:06 22° 336° (NNW) 16:05:36 437.505/2401.250
YUBILEINY 31 Aug 16:03:48 16:12:42 86° 68° (ENE) 16:21:29 435.215
STARS 31 Aug 16:04:08 16:07:38 22° 87° (E) 16:11:06 437.465
NOAA 18 31 Aug 16:04:46 16:10:12 62° 51° (NE) 16:15:39 137.9125
Cosmos 2491 31 Aug 16:06:10 16:13:37 33° 71° (ENE) 16:21:07 435.465 / 435.565
CUBESAT XI-V 31 Aug 16:11:56 16:15:02 17° 77° (ENE) 16:18:08 437.345
HORYU 2 31 Aug 16:14:21 16:18:46 62° 252° (WSW) 16:23:12 437.375
NOAA 15 31 Aug 16:15:14 16:20:30 73° 57° (ENE) 16:25:50 137.62
DELFI C3 31 Aug 16:16:03 16:18:08 14° 5° (N) 16:20:15 145.870
MOZHAYETS 4 31 Aug 16:17:07 16:21:32 44° 99° (E) 16:25:56
AIST 1 31 Aug 16:17:34 16:21:05 22° 31° (NNE) 16:24:36
Cubesat XI-IV 31 Aug 16:17:48 16:23:06 67° 55° (NE) 16:28:25 437.490
GONETS M04 31 Aug 16:21:19 16:29:27 38° 346° (NNW) 16:37:35
SPROUT 31 Aug 16:23:35 16:27:01 23° 330° (NNW) 16:30:25 437.525
Cosmos 2499 31 Aug 16:23:50 16:30:24 32° 342° (NNW) 16:36:43 435.465 / 435.565
SWISSCUBE 31 Aug 16:26:05 16:30:52 74° 301° (WNW) 16:35:38 437.505
CUBEBUG 1 31 Aug 16:26:22 16:29:40 21° 339° (NNW) 16:32:57 437.445
TISAT 1 31 Aug 16:26:35 16:30:27 35° 316° (NW) 16:34:17 437.305
CUTE-I 31 Aug 16:28:14 16:33:33 74° 57° (ENE) 16:38:53 437.470
SEEDS 31 Aug 16:28:39 16:31:55 23° 32° (NNE) 16:35:13 437.485
AIST 2 31 Aug 16:32:49 16:36:47 43° 192° (SSW) 16:40:45 435.215
Oscar 11 31 Aug 16:33:19 16:36:16 18° 18° (NNE) 16:39:13 145.826/435.025
VELOX 1 31 Aug 16:35:42 16:39:06 21° 339° (NNW) 16:42:28 145.980
DX 1 31 Aug 16:38:07 16:41:33 22° 336° (NNW) 16:44:58 434.975-435.025
ITAMSAT 1 31 Aug 16:40:30 16:43:20 15° 287° (WNW) 16:46:09 435.822/435.867
BRITE-PL 31 Aug 16:41:47 16:47:10 80° 250° (WSW) 16:52:53 437.365/2234.400
BEESAT 31 Aug 16:42:45 16:47:30 66° 303° (WNW) 16:52:14 436.000
AUBIESAT-1 31 Aug 16:44:01 16:47:45 27° 351° (N) 16:51:17 437.475
FUNcube-1 31 Aug 16:46:41 16:49:37 18° 21° (NNE) 16:52:30 145.935
AAUSAT CUBESAT 2 31 Aug 16:47:14 16:50:24 22° 30° (NNE) 16:53:35 437.432
M-CUBED/EXP-1 PRIME 31 Aug 16:53:25 16:57:14 27° 356° (N) 17:00:51 437.505
CANX-2 31 Aug 16:58:24 17:02:09 32° 44° (NE) 17:05:57 2200.000
COMPASS 1 31 Aug 16:59:20 17:02:44 25° 36° (NE) 17:06:09 437.405
BEESAT 2 31 Aug 17:00:33 17:02:57 15° 229° (SW) 17:05:21 435.950
